Flag for Russia Weather past 2 weeks in Yakutsk, Russia

Now
-29 °F

Light snow. Overcast.


Feels Like: -46 °F
Forecast: -35 / -24 °F
Wind: 6 mph from North

Location: Jakutsk

Current Time: Jan 28, 2015 at 6:59:47 AM

Latest Report: Jan 28, 2015 at 6:30 AM


Visibility: 3 mi

Pressure: 30.15 "Hg

Humidity: 74%

Dew point: -35 °F

Location of YakutskLocation

Historic Weather in Yakutsk — Graph

°F

Yakutsk temperature yesterday

Maximum temperature yesterday: -17 °F (at 12:30 AM)
Minimum temperature yesterday: -36 °F (at 9:30 AM)
Average temperature yesterday: -29 °F

Past Weeks' High & Low Weather Summary

 TemperatureHumidityPressure
High-4 °F (Jan 23, 1:00 PM)84% (Jan 23, 7:30 AM)30.54 "Hg (Jan 23, 7:30 AM)
Low-42 °F (Jan 26, 4:30 AM)58% (Jan 13, 10:00 AM)29.71 "Hg (Jan 23, 11:00 AM)
Average-27 °F71%30.15 "Hg
* Reported Jan 13 5:00 AM — Jan 28 5:30 AM, Yakutsk, Weather by CustomWeather, © 2014

Note: Actual official high and low records may vary slightly from our data, if they occured in-between our weather recording intervals... More about our weather records

Advertising

Yakutsk weather history for previous 24 hours

 ConditionsComfort  
Time TempWeatherWind HumidityBarometerVisibility
5:30 AM
Jan 28
-27 °FLight snow. Overcast.3 mph67%30.12 "Hg3 mi
5:00 AM-27 °FLight snow. Overcast.3 mph67%30.15 "Hg3 mi
4:30 AM-27 °FLight snow. Overcast.3 mph67%30.12 "HgN/A
4:00 AM-27 °FLight snow. Overcast.3 mph67%30.12 "HgN/A
3:30 AM-29 °FLight snow. Overcast.3 mph74%30.12 "HgN/A
3:00 AM-29 °FLight snow. Overcast.3 mph74%30.12 "HgN/A
2:30 AM-29 °FLight snow. Overcast.3 mph67%30.12 "HgN/A
2:00 AM-29 °FLight snow. Mostly cloudy.3 mph67%30.12 "HgN/A
1:30 AM-31 °FLight snow. Mostly cloudy.3 mph74%30.12 "HgN/A
1:00 AM-31 °FLight snow. Mostly cloudy.3 mph74%30.12 "HgN/A
12:30 AM-31 °FLight snow. Mostly cloudy.3 mph67%30.12 "HgN/A
12:00 AM-31 °FLight snow. Mostly cloudy.3 mph67%30.12 "HgN/A
11:30 PM
Jan 27
-31 °FLight snow. Overcast.3 mph67%30.12 "HgN/A
11:00 PM-33 °FLight snow. Overcast.3 mph74%30.12 "HgN/A
10:30 PM-33 °FLight snow. Overcast.3 mph66%30.12 "HgN/A
10:00 PM-33 °FLight snow. Overcast.1 mph66%30.12 "HgN/A
9:30 PM-33 °FLight snow. Overcast.1 mph66%30.12 "HgN/A
9:00 PM-33 °FLight snow. Overcast.No wind66%30.12 "HgN/A
8:30 PM-33 °FLight snow. Overcast.1 mph66%30.12 "HgN/A
8:00 PM-31 °FLight snow. Overcast.1 mph67%30.12 "HgN/A
7:30 PM-31 °FClear.No wind67%30.12 "Hg10 mi
7:00 PM-33 °FClear.No wind74%30.12 "Hg10 mi
6:30 PM-33 °FClear.1 mph66%30.12 "Hg10 mi
6:00 PM-33 °FClear.1 mph66%30.12 "Hg10 mi
5:30 PM-33 °FClear.1 mph66%30.09 "Hg10 mi
5:00 PM-33 °FClear.1 mph74%30.09 "Hg10 mi
4:30 PM-31 °FIce fog.1 mph67%30.09 "Hg3 mi
4:00 PM-31 °FIce fog.No wind67%30.09 "Hg3 mi
3:30 PM-31 °FIce fog.1 mph74%30.09 "Hg3 mi
3:00 PM-31 °FIce fog.No wind74%30.07 "Hg3 mi
2:30 PM-27 °FIce fog.No wind67%30.07 "Hg3 mi
2:00 PM-27 °FIce fog.No wind74%30.07 "Hg3 mi
1:30 PM-27 °FIce fog.No wind67%30.07 "Hg3 mi
1:00 PM-27 °FIce fog.No wind74%30.07 "Hg1 mi
12:30 PM-27 °FIce fog.No wind74%30.07 "Hg3 mi
11:30 AM-29 °FLight snow. Ice fog.No wind67%30.07 "Hg1 mi
11:00 AM-31 °FLight snow. Ice fog.No wind74%30.04 "Hg1 mi
10:30 AM-33 °FIce fog.No wind66%30.04 "Hg1 mi
10:00 AM-35 °FIce fog.1 mph73%30.04 "Hg1 mi
9:30 AM-36 °FIce fog.No wind66%30.04 "Hg1 mi
9:00 AM-35 °FClear.No wind66%30.04 "Hg10 mi
8:30 AM-35 °FClear.No wind66%30.01 "Hg10 mi
8:00 AM-31 °FClear.1 mph67%30.01 "Hg10 mi
7:30 AM-33 °FClear.No wind66%30.01 "Hg10 mi
7:00 AM-33 °FClear.No wind66%30.01 "Hg10 mi
6:30 AM-31 °FClear.1 mph67%29.98 "Hg10 mi
6:00 AM-29 °FLight snow. Overcast.1 mph67%29.98 "HgN/A
Weather by CustomWeather, © 2014

See weather overviewHow to use our weather pages